{"data":{"norad_id":38764,"intl_designator":"2012-048G","name":"CINEMA","alt_names":[],"object_type":"PAYLOAD","status":"ACTIVE","operator":null,"country":"US","launch_date":"2012-09-13","launch_site_code":"AFWTR","launch_vehicle":null,"mission":null,"orbit_class":"UNKNOWN","rcs_meters":null,"size_class":null,"mass_kg":null,"dimensions":null,"purposes":[],"wikipedia_slug":null,"has_3d_model":false,"image_url":null,"decayed_at":null,"tle_current":{"epoch":"2026-05-25T03:06:29.332224Z","epoch_age_seconds":57736,"freshness":"FRESH","line1":"1 38764U 12048G   26145.12950616  .00025645  00000+0  49442-3 0  9998","line2":"2 38764  64.6422 163.7815 0046690 184.2439 175.8310 15.46590254113675","mean_motion":15.46590254,"eccentricity":0.004669,"inclination_deg":64.6422,"raan_deg":163.7815,"arg_perigee_deg":184.2439,"mean_anomaly_deg":175.831,"bstar":0.00049442,"rev_number":11367,"period_min":93.108048254906,"perigee_km":394.93760178755,"apogee_km":458.48125774872,"semimajor_km":6804.8464297681,"source":"CELESTRAK","updated_at":"2026-05-25T13:37:55.323044Z"}}}